Weather History for Dodge City, KS

Change the Weather History Date:

Friday, March 22, 2013

  Actual Average Record
Temperature  
Mean Temperature 37 °F -  
Max Temperature 55 °F 60 °F 89 °F (1907)
Min Temperature 19 °F 32 °F 11 °F (1955)
Degree Days  
Heating Degree Days 28    
Moisture  
Dew Point 26 °F    
Average Humidity 64    
Maximum Humidity 91    
Minimum Humidity 26    
Precipitation  
Precipitation 0.00 in - - ()
Sea Level Pressure  
Sea Level Pressure 29.88 in    
Wind  
Wind Speed 7 mph (NE)    
Max Wind Speed 14 mph    
Max Gust Speed -    
Visibility 8 miles    
Events      
Averages and records for this station are not official NWS values.
T = Trace of Precipitation, MM = Missing Value Source: NWS Daily Summary

Daily Weather History Graph

Daily Weather History Graph

Search for Another Location

Airport:

Trip Planner

Search our weather history database for the weather conditions in past years. The results will help you decide how hot, cold, wet, or windy it might be!

Date:

Astronomy

Mar. 22, 2013 Rise Set
Actual Time 7:39 AM CDT 7:53 PM CDT
Civil Twilight 7:13 AM CDT 8:20 PM CDT
Nautical Twilight 6:43 AM CDT 8:50 PM CDT
Astronomical Twilight 6:11 AM CDT 9:22 PM CDT
Moon 3:27 PM CDT (3/22) 4:36 AM CDT (3/22)
Length of Visible Light 13h 06m
Length of Day
12h 13m
Waxing Gibbous, 77% of the Moon is Illuminated
Mar 22
Waxing Gibbous
Mar 27
Full
Apr 2
Last Quarter
Apr 10
New
Apr 18
First Quarter

Hourly Weather History & Observations

Time (CDT) Temp. Windchill Dew Point Humidity Pressure Visibility Wind Dir Wind Speed Gust Speed Precip Events Conditions
12:52 AM 30.9 °F 24.3 °F 23.0 °F 72% 29.88 in 10.0 mi NNE 6.9 mph - N/A   Scattered Clouds
1:52 AM 32.0 °F 23.0 °F 23.0 °F 69% 29.88 in 10.0 mi NNE 11.5 mph - N/A   Overcast
2:52 AM 30.0 °F 21.7 °F 24.1 °F 79% 29.86 in 10.0 mi ENE 9.2 mph - N/A   Mostly Cloudy
3:52 AM 24.1 °F 14.4 °F 21.0 °F 88% 29.87 in 7.0 mi North 9.2 mph - N/A   Clear
4:52 AM 24.1 °F 18.2 °F 21.9 °F 91% 29.86 in 6.0 mi NNW 4.6 mph - N/A   Clear
5:52 AM 21.0 °F 14.6 °F 18.0 °F 88% 29.88 in 5.0 mi NNW 4.6 mph - N/A   Clear
6:52 AM 19.0 °F 11.1 °F 16.0 °F 88% 29.91 in 5.0 mi NNW 5.8 mph - N/A   Clear
7:52 AM 19.9 °F 13.4 °F 17.1 °F 89% 29.92 in 3.0 mi NNW 4.6 mph - N/A   Clear
8:52 AM 26.1 °F - 23.0 °F 88% 29.95 in 5.0 mi Calm Calm - N/A   Scattered Clouds
9:52 AM 32.0 °F - 27.0 °F 82% 29.95 in 7.0 mi Calm Calm - N/A   Partly Cloudy
10:35 AM 35.6 °F - 28.4 °F 75% 29.91 in 8.0 mi Calm Calm - N/A   Mostly Cloudy
10:52 AM 37.0 °F - 27.0 °F 67% 29.94 in 9.0 mi Calm Calm - N/A   Overcast
11:15 AM 39.2 °F 35.0 °F 28.4 °F 65% 29.89 in 9.0 mi Variable 5.8 mph - N/A   Scattered Clouds
11:52 AM 43.0 °F 37.2 °F 28.9 °F 58% 29.91 in 10.0 mi North 10.4 mph - N/A   Clear
12:52 PM 46.9 °F - 30.0 °F 52% 29.91 in 10.0 mi Variable 3.5 mph - N/A   Clear
1:52 PM 48.9 °F - 28.0 °F 44% 29.88 in 10.0 mi Calm Calm - N/A   Clear
2:52 PM 52.0 °F - 28.0 °F 40% 29.83 in 10.0 mi Variable 4.6 mph - N/A   Clear
3:52 PM 53.1 °F - 28.0 °F 38% 29.83 in 10.0 mi SE 5.8 mph - N/A   Scattered Clouds
4:52 PM 55.0 °F - 28.0 °F 35% 29.81 in 10.0 mi Calm Calm - N/A   Overcast
5:52 PM 55.0 °F - 28.9 °F 37% 29.81 in 10.0 mi ENE 10.4 mph - N/A   Clear
6:52 PM 52.0 °F - 28.9 °F 41% 29.82 in 10.0 mi ESE 9.2 mph - N/A   Clear
7:52 PM 45.0 °F 39.3 °F 28.9 °F 53% 29.83 in 10.0 mi East 11.5 mph - N/A   Clear
8:52 PM 39.9 °F 32.9 °F 28.0 °F 63% 29.84 in 10.0 mi East 11.5 mph - N/A   Clear
9:52 PM 37.9 °F 29.6 °F 28.9 °F 70% 29.85 in 10.0 mi ESE 13.8 mph - N/A   Clear
10:52 PM 35.1 °F 27.4 °F 28.0 °F 76% 29.86 in 9.0 mi ESE 10.4 mph - N/A   Clear
11:52 PM 30.9 °F 23.5 °F 26.1 °F 82% 29.87 in 8.0 mi ESE 8.1 mph - N/A   Clear